Location: Asheville, NC
(35.6000°N, 82.5500°W)
Time: 14:21:12
(UTC-04:00)

XW-2D - Pass Details

Date: 07 January 2018
Orbit: 511 x 528 km, 97.5° (Epoch: 18 July)

Event Time Altitude Azimuth Distance (km) Brightness Sun altitude
Rises 06:48:17 0° 6° (N) 2,655 ? -10.5°
Reaches altitude 10° 06:50:25 10° 2° (N) 1,759 ? -10.1°
Maximum altitude 06:54:08 54° 284° (WNW) 637 ? -9.4°
Drops below altitude 10° 06:57:47 10° 207° (SSW) 1,736 ? -8.7°
Sets 06:59:53 0° 203° (SSW) 2,615 ? -8.3°
